Starlink 30196

operational
NORAD ID: 57448 Int'l Des: 2023-105 Owner: SPXS Country: US Constellation: starlink
LEOCIRCULAR

About Starlink 30196

Description loading...

Live Position

Loading 3D Globe...

Upcoming Passes

Altitude History

Altitude vs Time

uPlot chart will show altitude changes over time

Two-Line Element Set

1 57448U 23105U 25350.06098590 -.00006265 00000-0 -44897-3 0 9997
2 57448 43.0051 355.8023 0001854 269.1406 90.9224 15.02544855132826
Epoch: Dec 16, 2025 • Age: 23 hours

Current Status

Altitude 558.8 km
Velocity 7.58 km/s
Sub-Earth Point 16.01°N, 59.49°E
Launch Date Jul 24, 2023
Age 2.3 years
Type internet

Technical Details

Classification Payload
Mass 730.00 kg
Dry Mass 700.00 kg
Total Mass 730.00 kg
Length 0.30 m
Diameter 4.10 m
Span 29.00 m
Shape Box + pan
Manufacturer SPXS
Bus Type Starlink V2M
Phase Status In Orbit
Owner/State SPXS/US

Large Constellations

Loading constellations...